Tiempo atmosférico en la estación meteorológica de Banyalbufar, Illes Balears (60 m.)



Fecha
DESCASC
Temp. máxima en grados centígrados (hora)
DESCASC
Temp. mínima en grados centígrados (hora)
DESCASC
Temp. media en grados centígrados
DESCASC
Racha de viento máxima en m/sg (hora)
DESCASC
Velocidad máxima media en intervalos de 10 minutos(hora)
DESCASC
Precipitaciones diarias en mm
DESCASC
Precipitaciones de 00:00 a 06:00 en mm
DESCASC
Precipitaciones de 06:00 a 12:00 en mm
DESCASC
Precipitaciones de 12:00 a 18:00 en mm
DESCASC
Precipitaciones de 18:00 a 24:00 en mm
DESCASC
20-09-2018 27.7 (16:40) 20.8 (00:10) 24.3 4.17 (14:00) 2.78 (22:50) 0 0 0 0 0
19-09-2018 26.4 (17:00) 20.9 (23:50) 23.6 4.72 (14:00) 3.06 (14:00) 0 0 0 0 0
18-09-2018 27.9 (18:10) 22 (03:50) 24.9 12.78 (08:50) 8.89 (09:00) 0.4 0.4 0 0 0
17-09-2018 28 (16:50) 21.7 (07:30) 24.9 10.28 (16:10) 5.28 (16:00) 0.2 0 0 0.2 0
16-09-2018 27.1 (18:30) 21.7 (00:00) 24.4 6.11 (00:10) 3.06 (00:50) 0 0 0 0 0
15-09-2018 25.3 (11:40) 20.9 (00:00) 23.1 11.11 (12:50) 6.11 (12:10) 15.8 0 0.6 15.2 0
14-09-2018 27.6 (14:30) 20.7 (00:00) 24.2 5 (04:40) 3.61 (03:20) 0 0 0 0 0
13-09-2018 25.5 (01:20) 19.9 (00:00) 22.7 11.39 (06:00) 5.83 (06:00) 9.4 1.2 8.2 0 0
12-09-2018 26.6 (14:20) 23.6 (00:00) 25.1 10.83 (01:50) 4.44 (01:00) 1.4 0 0 1.4 0
11-09-2018 29.6 (17:10) 21.7 (00:00) 25.7 9.44 (23:00) 5.56 (14:50) 0 0 0 0 0
10-09-2018 26.3 (16:30) 22.4 (00:00) 24.3 10.56 (07:40) 6.11 (07:10) 1.6 1.2 0.2 0.2 0
09-09-2018 29.1 (17:10) 22.8 (00:00) 25.9 9.17 (12:00) 4.72 (23:40) 0 0 0 0 0
08-09-2018 27.7 (12:10) 21.1 (00:00) 24.4 8.89 (22:40) 5 (22:40) 0 0 0 0 0
07-09-2018 27.5 (18:30) 21.9 (00:00) 24.7 9.17 (17:40) 4.72 (17:30) 0 0 0 0 0
06-09-2018 28.6 (10:00) 21.9 (00:00) 25.3 8.33 (05:30) 3.89 (04:50) 0 0 0 0 0
05-09-2018 28.6 (16:40) 23.4 (00:00) 26 6.94 (16:10) 3.61 (14:20) 0 0 0 0 0
04-09-2018 29.2 (17:40) 21.4 (00:00) 25.3 16.11 (04:10) 8.89 (04:10) 0 0 0 0 0
03-09-2018 30.5 (14:10) 22.3 (00:00) 26.4 10.56 (19:30) 6.94 (19:30) 6.8 0 0 0 6.8
02-09-2018 29.5 (17:20) 22 (00:00) 25.8 7.78 (07:50) 3.33 (06:20) 0 0 0 0 0
01-09-2018 28.8 (15:00) 22.8 (00:00) 25.8 6.94 (09:00) 3.06 (01:00) 0 0 0 0 0
31-08-2018 29 (15:50) 22.1 (00:00) 25.6 7.5 (23:00) 4.72 (23:00) 0 0 0 0 0
30-08-2018 29.1 (13:30) 23.7 (00:00) 26.4 5.56 (09:10) 2.78 (09:00) 0 0 0 0 0
29-08-2018 29.1 (09:40) 23.3 (00:00) 26.2 6.94 (10:00) 4.17 (10:10) 0 0 0 0 0
28-08-2018 30 (20:10) 21.9 (00:00) 25.9 12.5 (20:50) 6.39 (20:50) 0 0 0 0 0
27-08-2018 29.3 (16:00) 21.5 (00:00) 25.4 4.72 (01:40) 2.78 (01:20) 0 0 0 0 0
26-08-2018 27.4 (17:30) 22 (00:00) 24.7 11.39 (07:10) 6.67 (07:40) 0 0 0 0 0
25-08-2018 27.8 (14:10) 22.4 (00:00) 25.1 4.44 (16:30) 3.06 (16:30) 0.6 0.6 0 0 0

Gráficas

Temp. máximas Temp. mínimas Temp. medias Precipitaciones Rachas de viento máximas Velocidades máximas media en intervalos de 10 minutos

Datos horarios

Fecha y hora oficial Temperatura (ºC) Velocidad del viento (km/h) Dirección del viento Racha (km/h) Dirección de racha Precipitación (mm) Presión (hPa) Tendencia (hPa) Humedad (%)
2018-09-23 23:00:00 23 10 Sur 13 Sur 0 -- -- 50
2018-09-23 22:00:00 23.4 9 Sur 13 Sur 0 -- -- 47
2018-09-23 21:00:00 25.5 6 Sur 24 Sur 0 -- -- 35
2018-09-23 20:00:00 26.9 12 Sur 30 Sudoeste 0 -- -- 32
2018-09-23 19:00:00 28.7 14 Sur 26 Sur 0 -- -- 36
2018-09-23 18:00:00 29.3 3 Este 14 Sudeste 0 -- -- 40
2018-09-23 17:00:00 27.5 5 Norte 12 Noroeste 0 -- -- 73
2018-09-23 16:00:00 27.3 5 Norte 10 Norte 0 -- -- 76
2018-09-23 15:00:00 27 8 Norte 14 Norte 0 -- -- 79
2018-09-23 14:00:00 27 8 Norte 15 Norte 0 -- -- 78
2018-09-23 13:00:00 26.5 5 Nordeste 9 Norte 0 -- -- 78
2018-09-23 12:00:00 26.4 4 Norte 6 Norte 0 -- -- 75
2018-09-23 11:00:00 26 4 Norte 6 Norte 0 -- -- 77
2018-09-23 10:00:00 25.5 0 Calma 9 Sur 0 -- -- 77
2018-09-23 09:00:00 22.4 5 Sur 13 Sur 0 -- -- 74
2018-09-23 08:00:00 20.8 9 Sur 16 Sur 0 -- -- 72
2018-09-23 07:00:00 21 9 Sur 12 Sur 0 -- -- 67
2018-09-23 06:00:00 20.9 8 Sur 14 Sur 0 -- -- 66
2018-09-23 05:00:00 21.4 9 Sur 14 Sur 0 -- -- 63
2018-09-23 04:00:00 21.6 6 Sur 13 Sur 0 -- -- 67
2018-09-23 03:00:00 21.5 10 Sur 15 Sur 0 -- -- 59
2018-09-23 02:00:00 21.8 12 Sur 14 Sur 0 -- -- 64
2018-09-23 01:00:00 21.8 9 Sur 13 Sur 0 -- -- 68
2018-09-23 00:00:00 22 10 Sur 14 Sur 0 -- -- 70
2018-09-22 23:00:00 21.9 10 Sur 13 Sur 0 -- -- 72
2018-09-22 22:00:00 22.3 7 Sur 12 Sur 0 -- -- 76
2018-09-22 21:00:00 22.7 9 Sur 13 Sur 0 -- -- 69
2018-09-22 20:00:00 24.4 8 Sur 12 Sur 0 -- -- 75
2018-09-22 19:00:00 27.1 6 Oeste 18 Oeste 0 -- -- 72
2018-09-22 18:00:00 27.8 6 Noroeste 16 Oeste 0 -- -- 73
2018-09-22 17:00:00 27.4 4 Norte 10 Norte 0 -- -- 76
2018-09-22 16:00:00 27.2 5 Norte 9 Norte 0 -- -- 75
2018-09-22 15:00:00 27.3 5 Norte 8 Norte 0 -- -- 77
2018-09-22 14:00:00 26.9 5 Norte 13 Norte 0 -- -- 80
2018-09-22 13:00:00 26.6 7 Norte 15 Norte 0 -- -- 78
2018-09-22 12:00:00 27 3 Noroeste 9 Oeste 0 -- -- 72
2018-09-22 11:00:00 26.4 4 Norte 8 Norte 0 -- -- 79
2018-09-22 10:00:00 25.2 5 Sur 7 Sur 0 -- -- 81
2018-09-22 09:00:00 22.2 6 Sur 12 Sur 0 -- -- 84
2018-09-22 08:00:00 21.1 9 Sur 14 Sur 0 -- -- 85
2018-09-22 07:00:00 21 10 Sur 12 Sur 0 -- -- 84
2018-09-22 06:00:00 21.4 7 Sudeste 12 Sur 0 -- -- 82
2018-09-22 05:00:00 21.1 10 Sur 12 Sur 0 -- -- 89
2018-09-22 04:00:00 22.3 6 Sur 13 Sur 0 -- -- 92
2018-09-22 03:00:00 22.8 9 Sur 14 Sur 0 -- -- 94
2018-09-22 02:00:00 23 9 Sur 13 Sudeste 0 -- -- 94
2018-09-22 01:00:00 23.7 5 Sudeste 14 Sudeste 0 -- -- 93
2018-09-22 00:00:00 23.4 9 Sudeste 16 Sudeste 0 -- -- 83
2018-09-21 23:00:00 22.1 5 Sur 12 Sur 0 -- -- 80
2018-09-21 22:00:00 22.7 8 Sudeste 15 Sur 0 -- -- 81
2018-09-21 21:00:00 22.3 8 Sur 10 Sur 0 -- -- 86
2018-09-21 20:00:00 24 4 Sur 15 Oeste 0 -- -- 90
2018-09-21 19:00:00 25.9 9 Oeste 19 Oeste 0 -- -- 83
2018-09-21 18:00:00 26.1 13 Oeste 20 Oeste 0 -- -- 81
2018-09-21 17:00:00 26.3 10 Oeste 19 Oeste 0 -- -- 81
2018-09-21 16:00:00 26.7 7 Noroeste 18 Noroeste 0 -- -- 80
2018-09-21 15:00:00 26.3 10 Oeste 21 Oeste 0 -- -- 81
2018-09-21 14:00:00 25.6 14 Oeste 22 Oeste 0 -- -- 82
2018-09-21 13:00:00 25.6 12 Oeste 21 Oeste 0 -- -- 83
2018-09-21 12:00:00 25.6 10 Oeste 21 Oeste 0 -- -- 81
2018-09-21 11:00:00 25.2 11 Oeste 17 Oeste 0 -- -- 78
2018-09-21 10:00:00 24.7 2 Sudoeste 10 Sur 0 -- -- 79
2018-09-21 09:00:00 22 7 Sur 12 Sur 0 -- -- 87
2018-09-21 08:00:00 20.2 7 Sur 13 Sur 0 -- -- 87
2018-09-21 07:00:00 20.2 8 Sur 13 Sur 0 -- -- 88
2018-09-21 06:00:00 19.9 10 Sur 14 Sur 0 -- -- 88
2018-09-21 05:00:00 20 11 Sur 14 Sur 0 -- -- 90
2018-09-21 04:00:00 20.2 10 Sur 15 Sur 0 -- -- 95
2018-09-21 03:00:00 20.5 10 Sur 18 Sur 0 -- -- 93
2018-09-21 02:00:00 20.6 11 Sur 16 Sur 0 -- -- 92
2018-09-21 01:00:00 20.8 10 Sur 14 Sur 0 -- -- 89
2018-09-21 00:00:00 21 9 Sur 14 Sur 0 -- -- 87
2018-09-20 23:00:00 21.2 8 Sur 13 Sur 0 -- -- 89
2018-09-20 22:00:00 21.4 9 Sur 13 Sur 0 -- -- 89
2018-09-20 21:00:00 22.1 6 Sur 10 Sur 0 -- -- 88
2018-09-20 20:00:00 23.8 5 Sur 7 Sur 0 -- -- 81
2018-09-20 19:00:00 26.4 0 Calma 7 Noroeste 0 -- -- 75
2018-09-20 18:00:00 26.6 6 Norte 9 Norte 0 -- -- 73
2018-09-20 17:00:00 27.6 3 Noroeste 6 Noroeste 0 -- -- 69
2018-09-20 16:00:00 26.5 4 Norte 8 Norte 0 -- -- 74
2018-09-20 15:00:00 26.3 5 Norte 10 Norte 0 -- -- 77
2018-09-20 14:00:00 25.8 8 Norte 15 Norte 0 -- -- 79
2018-09-20 13:00:00 25.2 7 Norte 12 Norte 0 -- -- 80
2018-09-20 12:00:00 24.7 7 Norte 13 Norte 0 -- -- 82
2018-09-20 11:00:00 24.6 7 Nordeste 13 Nordeste 0 -- -- 82
2018-09-20 10:00:00 24.4 5 Nordeste 10 Nordeste 0 -- -- 81
2018-09-20 09:00:00 22.9 4 Sudeste 11 Sudeste 0 -- -- 92
2018-09-20 08:00:00 21.1 7 Sur 12 Sudeste 0 -- -- 93
2018-09-20 07:00:00 21.1 9 Sur 12 Sudeste 0 -- -- 95
2018-09-20 06:00:00 21.3 8 Sur 14 Sudeste 0 -- -- 97
2018-09-20 05:00:00 21.2 6 Sudeste 10 Sudeste 0 -- -- 98
2018-09-20 04:00:00 21.3 6 Sudeste 10 Sur 0 -- -- 97
2018-09-20 03:00:00 21.5 7 Sur 10 Sur 0 -- -- 95
2018-09-20 02:00:00 20.9 7 Sur 10 Sudeste 0 -- -- 93
2018-09-20 01:00:00 21.3 6 Sur 10 Sur 0 -- -- 95
2018-09-20 00:00:00 20.9 6 Sur 13 Sur 0 -- -- 94
2018-09-19 23:00:00 21.3 6 Sur 14 Sur 0 -- -- 92
2018-09-19 22:00:00 21.8 8 Sur 14 Sudeste 0 -- -- 88
2018-09-19 21:00:00 22.1 6 Sudeste 11 Sudeste 0 -- -- 85
2018-09-19 20:00:00 23.3 6 Sur 10 Sudeste 0 -- -- 87
2018-09-19 19:00:00 24.9 5 Nordeste 14 Nordeste 0 -- -- 81
2018-09-19 18:00:00 26.1 7 Nordeste 17 Norte 0 -- -- 78
2018-09-19 17:00:00 26.4 9 Nordeste 15 Nordeste 0 -- -- 81
2018-09-19 16:00:00 25.7 9 Nordeste 16 Norte 0 -- -- 84
2018-09-19 15:00:00 25.9 7 Nordeste 16 Norte 0 -- -- 83
2018-09-19 14:00:00 24.8 11 Norte 17 Norte 0 -- -- 88
2018-09-19 13:00:00 25.2 7 Nordeste 12 Nordeste 0 -- -- 86
2018-09-19 12:00:00 25.1 5 Nordeste 10 Nordeste 0 -- -- 86
2018-09-19 11:00:00 24.7 6 Nordeste 14 Nordeste 0 -- -- 86
2018-09-19 10:00:00 25.2 5 Nordeste 10 Nordeste 0 -- -- 82
2018-09-19 09:00:00 24.4 5 Sudeste 9 Sur 0 -- -- 85
2018-09-19 08:00:00 22 5 Sur 13 Sur 0 -- -- 85
2018-09-19 07:00:00 21.3 9 Sur 12 Sur 0 -- -- 87
2018-09-19 06:00:00 22.2 8 Sur 12 Sur 0 -- -- 91
2018-09-19 05:00:00 22.1 8 Sur 11 Sur 0 -- -- 92
2018-09-19 04:00:00 22.6 6 Sur 9 Sur 0 -- -- 93
2018-09-19 03:00:00 22.8 6 Sur 12 Este 0 -- -- 92
2018-09-19 02:00:00 23.1 6 Sudeste 11 Sudeste 0 -- -- 89
2018-09-19 01:00:00 23 7 Sudeste 10 Sudeste 0 -- -- 87
2018-09-19 00:00:00 23.1 5 Sur 10 Sur 0 -- -- 89
2018-09-18 23:00:00 22.6 10 Sur 12 Sur 0 -- -- 90
2018-09-18 22:00:00 23.2 6 Sudeste 11 Sur 0 -- -- 89
2018-09-18 21:00:00 23.6 6 Sur 12 Sur 0 -- -- 87
2018-09-18 20:00:00 24.2 7 Sur 18 Este 0 -- -- 80
2018-09-18 19:00:00 27.2 6 Sudeste 15 Sudeste 0 -- -- 70
2018-09-18 18:00:00 27.6 7 Nordeste 20 Norte 0 -- -- 68
2018-09-18 17:00:00 26.4 12 Nordeste 25 Este 0 -- -- 74
2018-09-18 16:00:00 25.7 12 Nordeste 21 Nordeste 0 -- -- 78
2018-09-18 15:00:00 25.5 9 Nordeste 18 Nordeste 0 -- -- 77
2018-09-18 14:00:00 25.3 12 Nordeste 20 Nordeste 0 -- -- 80
2018-09-18 13:00:00 25.9 9 Nordeste 15 Nordeste 0 -- -- 70
2018-09-18 12:00:00 25.4 9 Norte 14 Norte 0 -- -- 77
2018-09-18 11:00:00 24 8 Nordeste 17 Nordeste 0 -- -- 86
2018-09-18 10:00:00 23.3 7 Este 30 Norte 0 -- -- 84
2018-09-18 09:00:00 23 32 Norte 46 Norte 0 -- -- 91
2018-09-18 08:00:00 23 6 Sur 13 Sudeste 0 -- -- 87
2018-09-18 07:00:00 24.4 8 Sur 14 Sudoeste 0 -- -- 82
2018-09-18 06:00:00 24.6 9 Sudoeste 27 Sur 0 -- -- 82
2018-09-18 05:00:00 24.2 10 Sur 20 Sudoeste 0 -- -- 84
2018-09-18 04:00:00 22.1 4 Sur 13 Sur 0.2 -- -- 97
2018-09-18 03:00:00 22.6 8 Sur 14 Sur 0.2 -- -- 95
2018-09-18 02:00:00 22.5 8 Sudoeste 14 Sur 0 -- -- 90
2018-09-18 01:00:00 22.3 9 Sur 13 Sur 0 -- -- 92
2018-09-18 00:00:00 22.5 7 Sur 13 Sur 0 -- -- 93
2018-09-17 23:00:00 22.7 9 Sur 12 Sur 0 -- -- 94
2018-09-17 22:00:00 23.2 6 Sur 13 Sudoeste 0 -- -- 94
2018-09-17 21:00:00 23.8 5 Sur 11 Este 0 -- -- 91
2018-09-17 20:00:00 24.7 4 Sur 7 Sur 0 -- -- 88
2018-09-17 19:00:00 27.5 2 Noroeste 12 Norte 0 -- -- 79
2018-09-17 18:00:00 26 6 Norte 16 Norte 0 -- -- 87
2018-09-17 17:00:00 27.6 6 Norte 37 Nordeste 0 -- -- 78
2018-09-17 16:00:00 24.5 19 Nordeste 31 Nordeste 0.2 -- -- 91
2018-09-17 15:00:00 25.9 7 Oeste 13 Sudoeste 0 -- -- 83
2018-09-17 14:00:00 26.9 6 Norte 9 Norte 0 -- -- 77
2018-09-17 13:00:00 26.8 3 Norte 6 Noroeste 0 -- -- 78
2018-09-17 12:00:00 26.2 5 Norte 10 Norte 0 -- -- 82
2018-09-17 11:00:00 25.9 6 Norte 12 Norte 0 -- -- 82
2018-09-17 10:00:00 26.2 3 Oeste 9 Sur 0 -- -- 82
2018-09-17 09:00:00 23.8 6 Sur 11 Sur 0 -- -- 95
2018-09-17 08:00:00 21.8 7 Sur 10 Sur 0 -- -- 99
2018-09-17 07:00:00 22.3 5 Sudeste 16 Sur 0 -- -- 97
2018-09-17 06:00:00 22.8 9 Sur 13 Sur 0 -- -- 96
2018-09-17 05:00:00 22.3 6 Sur 12 Sudeste 0 -- -- 92
2018-09-17 04:00:00 22 5 Sur 12 Sur 0 -- -- 94
2018-09-17 03:00:00 22.5 8 Sur 14 Sur 0 -- -- 94
2018-09-17 02:00:00 23.3 6 Sudeste 15 Sudeste 0 -- -- 94
2018-09-17 01:00:00 22.8 5 Sur 12 Sur 0 -- -- 92
2018-09-17 00:00:00 23.3 4 Sur 14 Sudeste 0 -- -- 92
2018-09-16 23:00:00 23.4 5 Sudeste 13 Sur 0 -- -- 90
2018-09-16 22:00:00 23.4 7 Sur 11 Sur 0 -- -- 87
2018-09-16 21:00:00 23.2 6 Sur 10 Sur 0 -- -- 88
2018-09-16 20:00:00 24.4 4 Sur 8 Sur 0 -- -- 81
2018-09-16 19:00:00 26.3 3 Norte 7 Norte 0 -- -- 74
2018-09-16 18:00:00 25.9 3 Norte 10 Norte 0 -- -- 76
2018-09-16 17:00:00 26.8 6 Norte 12 Norte 0 -- -- 78
2018-09-16 16:00:00 25.7 4 Norte 7 Norte 0 -- -- 81
2018-09-16 15:00:00 25.9 4 Norte 9 Norte 0 -- -- 80
2018-09-16 14:00:00 26.1 7 Norte 13 Norte 0 -- -- 80
2018-09-16 13:00:00 26.1 6 Nordeste 17 Nordeste 0 -- -- 81
2018-09-16 12:00:00 26.8 4 Noroeste 13 Norte 0 -- -- 76
2018-09-16 11:00:00 24.9 8 Nordeste 18 Este 0 -- -- 84
2018-09-16 10:00:00 25.3 3 Norte 17 Sudeste 0 -- -- 79
2018-09-16 09:00:00 23.6 5 Este 12 Sudeste 0 -- -- 88
2018-09-16 08:00:00 22.9 7 Sudeste 13 Sudeste 0 -- -- 90
2018-09-16 07:00:00 22.5 9 Sudeste 14 Sudeste 0 -- -- 89
2018-09-16 06:00:00 22.2 3 Sudeste 11 Sur 0 -- -- 93
2018-09-16 05:00:00 22 8 Sudeste 13 Sur 0 -- -- 95
2018-09-16 04:00:00 21.9 7 Sur 13 Sudeste 0 -- -- 97
2018-09-16 03:00:00 22.5 8 Sur 14 Sudeste 0 -- -- 94
2018-09-16 02:00:00 22.3 8 Sudeste 15 Sudeste 0 -- -- 90
2018-09-16 01:00:00 23.4 10 Nordeste 22 Este 0 -- -- 88
2018-09-16 00:00:00 23.5 12 Este 31 Sudeste 0 -- -- 89
2018-09-15 23:00:00 22.4 3 Sur 15 Sur 0 -- -- 95
2018-09-15 22:00:00 21.5 6 Sur 12 Sudeste 0 -- -- 97
2018-09-15 21:00:00 21.7 8 Sudeste 11 Sudeste 0 -- -- 98
2018-09-15 20:00:00 22.7 5 Sudeste 15 Nordeste 0 -- -- 94
2018-09-15 19:00:00 23.3 12 Nordeste 26 Nordeste 0 -- -- 95
2018-09-15 18:00:00 23.3 9 Nordeste 19 Este 0 -- -- 99
2018-09-15 17:00:00 21.9 4 Sudeste 9 Este 0 -- -- 100
2018-09-15 16:00:00 21.4 5 Sudeste 13 Sudeste 2.2 -- -- 100
2018-09-15 15:00:00 21 9 Oeste 25 Oeste 13 -- -- 100
2018-09-15 14:00:00 24.9 6 Este 27 Sudeste 0 -- -- 81
2018-09-15 13:00:00 24.9 15 Sudeste 40 Sudeste 0 -- -- 79
2018-09-15 12:00:00 25.1 17 Este 32 Sudeste 0.2 -- -- 80
2018-09-15 11:00:00 24.8 9 Este 25 Este 0 -- -- 82
2018-09-15 10:00:00 23.8 14 Sudeste 23 Sudeste 0.4 -- -- 85
2018-09-15 09:00:00 23.7 8 Este 23 Sudeste 0 -- -- 82
2018-09-15 08:00:00 23.1 7 Sudeste 10 Sudeste 0 -- -- 83
2018-09-15 07:00:00 23.3 4 Este 13 Sudeste 0 -- -- 79
2018-09-15 06:00:00 21.7 8 Sur 13 Sur 0 -- -- 83
2018-09-15 05:00:00 22.5 8 Sudeste 13 Sudeste 0 -- -- 82
2018-09-15 04:00:00 21.8 6 Sur 14 Sur 0 -- -- 84
2018-09-15 03:00:00 22.4 7 Sur 10 Sur 0 -- -- 81
2018-09-15 02:00:00 24.2 4 Este 20 Sur 0 -- -- 73
2018-09-15 01:00:00 23.2 6 Sudoeste 13 Sudoeste 0 -- -- 81
2018-09-15 00:00:00 22.7 9 Sur 13 Sur 0 -- -- 85
2018-09-14 23:00:00 22.4 7 Sur 11 Sur 0 -- -- 87
2018-09-14 22:00:00 23 8 Sur 14 Sudeste 0 -- -- 83
2018-09-14 21:00:00 23.6 6 Sudeste 9 Sudeste 0 -- -- 81
2018-09-14 20:00:00 24.8 5 Sudeste 14 Nordeste 0 -- -- 75
2018-09-14 19:00:00 26.6 8 Norte 15 Norte 0 -- -- 69
2018-09-14 18:00:00 27.1 8 Norte 14 Norte 0 -- -- 68
2018-09-14 17:00:00 26.5 7 Nordeste 13 Norte 0 -- -- 69
2018-09-14 16:00:00 26.9 7 Norte 11 Norte 0 -- -- 65
2018-09-14 15:00:00 27.2 6 Norte 11 Norte 0 -- -- 63
2018-09-14 14:00:00 26.4 3 Norte 9 Norte 0 -- -- 67
2018-09-14 13:00:00 26.4 5 Norte 10 Sudoeste 0 -- -- 72
2018-09-14 12:00:00 27 2 Norte 6 Noroeste 0 -- -- 64
2018-09-14 11:00:00 26.2 2 Norte 4 Noroeste 0 -- -- 71
2018-09-14 10:00:00 26.7 0 Calma 9 Sur 0 -- -- 75
2018-09-14 09:00:00 22.6 8 Sur 13 Sur 0 -- -- 86
2018-09-14 08:00:00 21.1 9 Sur 14 Sur 0 -- -- 86
2018-09-14 07:00:00 20.8 11 Sur 14 Sur 0 -- -- 85
2018-09-14 06:00:00 21.2 11 Sur 15 Sur 0 -- -- 83
2018-09-14 05:00:00 21.1 9 Sur 18 Sur 0 -- -- 82
2018-09-14 04:00:00 21.1 11 Sur 15 Sur 0 -- -- 84
2018-09-14 03:00:00 21.2 12 Sur 15 Sur 0 -- -- 84
2018-09-14 02:00:00 21.7 12 Sur 14 Sur 0 -- -- 82
2018-09-14 01:00:00 21.7 9 Sur 12 Sur 0 -- -- 75
2018-09-14 00:00:00 21.8 7 Sur 14 Sur 0 -- -- 77
2018-09-13 23:00:00 23.5 7 Sudeste 19 Sudeste 0 -- -- 66
2018-09-13 22:00:00 23.6 7 Sudeste 16 Sudeste 0 -- -- 68
2018-09-13 21:00:00 23.3 8 Sudeste 15 Sudeste 0 -- -- 74
2018-09-13 20:00:00 23.9 5 Sudeste 18 Nordeste 0 -- -- 80
2018-09-13 19:00:00 25.1 13 Nordeste 24 Nordeste 0 -- -- 77
2018-09-13 18:00:00 25.2 16 Nordeste 26 Nordeste 0 -- -- 78
2018-09-13 17:00:00 25.4 17 Nordeste 28 Nordeste 0 -- -- 78
2018-09-13 16:00:00 25.5 15 Nordeste 28 Nordeste 0 -- -- 80
2018-09-13 15:00:00 24.6 13 Nordeste 26 Nordeste 0 -- -- 84
2018-09-13 14:00:00 24.8 11 Nordeste 18 Nordeste 0 -- -- 87
2018-09-13 13:00:00 24.7 8 Nordeste 14 Nordeste 0 -- -- 86
2018-09-13 12:00:00 25.1 7 Nordeste 15 Norte 0 -- -- 85
2018-09-13 11:00:00 24.8 6 Nordeste 10 Nordeste 0 -- -- 87
2018-09-13 10:00:00 24 3 Sudeste 10 Sur 0 -- -- 100
2018-09-13 09:00:00 22 6 Sur 10 Sur 0 -- -- 100
2018-09-13 08:00:00 20.5 9 Sur 19 Sur 0 -- -- 100
2018-09-13 07:00:00 20.4 7 Sudeste 31 Sudeste 8.2 -- -- 100
2018-09-13 06:00:00 21.3 21 Nordeste 41 Nordeste 1.2 -- -- 90
2018-09-13 05:00:00 24.5 7 Sudoeste 16 Oeste 0 -- -- 92
2018-09-13 04:00:00 24.9 5 Sudoeste 17 Oeste 0 -- -- 88
2018-09-13 03:00:00 24.7 6 Sudoeste 19 Sudoeste 0 -- -- 82
2018-09-13 02:00:00 25 7 Sudoeste 19 Sudoeste 0 -- -- 79
2018-09-13 01:00:00 25.4 10 Sudoeste 21 Sur 0 -- -- 77
2018-09-13 00:00:00 23.9 10 Sur 15 Sudoeste 0 -- -- 82
2018-09-12 23:00:00 23.6 9 Sur 15 Sudoeste 0 -- -- 80
2018-09-12 22:00:00 24.3 10 Sur 19 Sur 0 -- -- 78
2018-09-12 21:00:00 24.5 10 Sur 18 Sudoeste 0 -- -- 80
2018-09-12 20:00:00 25.3 11 Sudoeste 19 Sudoeste 0 -- -- 83
2018-09-12 19:00:00 25.5 4 Sur 9 Oeste 0 -- -- 93
2018-09-12 18:00:00 26.1 0 Calma 6 Este 0 -- -- 94
2018-09-12 17:00:00 25.8 3 Este 10 Oeste 1 -- -- 96
2018-09-12 16:00:00 25.9 4 Norte 8 Noroeste 0.2 -- -- 90
2018-09-12 15:00:00 25.8 4 Oeste 13 Oeste 0 -- -- 92
2018-09-12 14:00:00 26.3 4 Noroeste 17 Oeste 0.2 -- -- 88
2018-09-12 13:00:00 25.3 2 Sur 7 Sur 0 -- -- 93
2018-09-12 12:00:00 25.5 0 Calma 11 Noroeste 0 -- -- 88
2018-09-12 11:00:00 25.7 6 Noroeste 15 Norte 0 -- -- 87
2018-09-12 10:00:00 25.2 3 Oeste 6 Sur 0 -- -- 90
2018-09-12 09:00:00 24.8 4 Sudoeste 9 Sudeste 0 -- -- 88
2018-09-12 08:00:00 25 6 Sudoeste 16 Sudoeste 0 -- -- 86
2018-09-12 07:00:00 24.3 4 Sur 21 Sudeste 0 -- -- 84
2018-09-12 06:00:00 25 6 Sur 31 Este 0 -- -- 83
2018-09-12 05:00:00 24.1 4 Sur 12 Sur 0 -- -- 82
2018-09-12 04:00:00 24.7 5 Sudeste 24 Este 0 -- -- 81
2018-09-12 03:00:00 25.1 8 Este 35 Nordeste 0 -- -- 79
2018-09-12 02:00:00 25 14 Este 39 Sudeste 0 -- -- 79
2018-09-12 01:00:00 25 16 Nordeste 31 Nordeste 0 -- -- 78
2018-09-12 00:00:00 25.1 15 Este 34 Nordeste 0 -- -- 74
2018-09-11 23:00:00 25.1 14 Este 34 Este 0 -- -- 75
2018-09-11 22:00:00 25.5 10 Sudeste 18 Este 0 -- -- 62
2018-09-11 21:00:00 25.7 10 Sudeste 16 Sudeste 0 -- -- 64
2018-09-11 20:00:00 26.4 6 Sudeste 20 Este 0 -- -- 65
2018-09-11 19:00:00 27.7 7 Nordeste 21 Nordeste 0 -- -- 69
2018-09-11 18:00:00 29.2 11 Este 23 Sudeste 0 -- -- 54
2018-09-11 17:00:00 29.2 12 Nordeste 24 Este 0 -- -- 53
2018-09-11 16:00:00 28.2 7 Norte 24 Nordeste 0 -- -- 68
2018-09-11 15:00:00 26.1 18 Nordeste 33 Nordeste 0 -- -- 75
2018-09-11 14:00:00 26.3 5 Norte 31 Sudoeste 0 -- -- 71
2018-09-11 13:00:00 26.9 6 Noroeste 14 Noroeste 0 -- -- 65
2018-09-11 12:00:00 26.6 5 Norte 12 Norte 0 -- -- 70
2018-09-11 11:00:00 25.6 5 Norte 15 Norte 0 -- -- 68
2018-09-11 10:00:00 25.6 8 Nordeste 14 Nordeste 0 -- -- 63
2018-09-11 09:00:00 24.2 3 Sur 12 Sur 0 -- -- 69
2018-09-11 08:00:00 21.7 6 Sur 10 Sur 0 -- -- 79
2018-09-11 07:00:00 21.8 6 Sur 15 Sudeste 0 -- -- 78
2018-09-11 06:00:00 22.5 9 Sudeste 13 Sudeste 0 -- -- 67
2018-09-11 05:00:00 22.5 6 Sudeste 14 Sudeste 0 -- -- 68
2018-09-11 04:00:00 23.2 7 Sudeste 16 Sudeste 0 -- -- 65
2018-09-11 03:00:00 22 6 Sudeste 12 Sur 0 -- -- 75
2018-09-11 02:00:00 22.7 6 Sudeste 14 Sudeste 0 -- -- 70
2018-09-11 01:00:00 24.1 11 Sudeste 26 Sudeste 0 -- -- 66
2018-09-11 00:00:00 23.9 14 Sudeste 30 Sudeste 0 -- -- 74
2018-09-10 23:00:00 23.4 12 Sudeste 23 Sudeste 0 -- -- 81
2018-09-10 22:00:00 22.4 6 Sudeste 11 Sudeste 0 -- -- 87
2018-09-10 21:00:00 23.1 4 Sur 18 Sudeste 0 -- -- 85
2018-09-10 20:00:00 24.7 6 Este 21 Nordeste 0 -- -- 84
2018-09-10 19:00:00 24.8 14 Nordeste 28 Nordeste 0 -- -- 85
2018-09-10 18:00:00 24.6 18 Nordeste 35 Nordeste 0 -- -- 87
2018-09-10 17:00:00 24.9 16 Nordeste 27 Norte 0 -- -- 85
2018-09-10 16:00:00 25.2 3 Este 13 Sudeste 0.2 -- -- 84
2018-09-10 15:00:00 24.8 9 Nordeste 31 Nordeste 0 -- -- 86
2018-09-10 14:00:00 24.3 21 Nordeste 33 Nordeste 0 -- -- 88
2018-09-10 13:00:00 24.5 13 Nordeste 23 Nordeste 0 -- -- 83
2018-09-10 12:00:00 25.3 12 Nordeste 21 Nordeste 0 -- -- 79
2018-09-10 11:00:00 25.7 11 Nordeste 22 Este 0 -- -- 73
2018-09-10 10:00:00 24.9 6 Nordeste 34 Nordeste 0.2 -- -- 76
2018-09-10 09:00:00 23.1 12 Este 26 Este 0 -- -- 84
2018-09-10 08:00:00 22.6 12 Sudeste 38 Nordeste 0 -- -- 88
2018-09-10 07:00:00 23 14 Nordeste 29 Nordeste 0 -- -- 92
2018-09-10 06:00:00 22.8 17 Nordeste 31 Nordeste 0 -- -- 96
2018-09-10 05:00:00 23 10 Este 36 Este 0 -- -- 94
2018-09-10 04:00:00 22.9 10 Sudeste 29 Este 1 -- -- 91
2018-09-10 03:00:00 24.2 10 Sudeste 23 Sudeste 0.2 -- -- 86
2018-09-10 02:00:00 25.6 8 Sudeste 18 Sudeste 0 -- -- 79
2018-09-10 01:00:00 25.3 5 Sudeste 21 Sudeste 0 -- -- 83
2018-09-10 00:00:00 25.5 9 Sudeste 27 Este 0 -- -- 81
2018-09-09 23:00:00 25.6 13 Este 24 Este 0 -- -- 77
2018-09-09 22:00:00 25.4 6 Sudeste 13 Nordeste 0 -- -- 74
2018-09-09 21:00:00 25 5 Sudeste 9 Sudeste 0 -- -- 76
2018-09-09 20:00:00 25.7 0 Calma 5 Nordeste 0 -- -- 73
2018-09-09 19:00:00 26.1 3 Norte 11 Norte 0 -- -- 72
2018-09-09 18:00:00 27.6 5 Norte 10 Noroeste 0 -- -- 65
2018-09-09 17:00:00 28.6 6 Norte 14 Norte 0 -- -- 60
2018-09-09 16:00:00 28.1 8 Norte 22 Oeste 0 -- -- 63
2018-09-09 15:00:00 27.9 11 Oeste 27 Sudeste 0 -- -- 64
2018-09-09 14:00:00 27.3 12 Sudeste 32 Sur 0 -- -- 65
2018-09-09 13:00:00 27.4 5 Sur 27 Este 0 -- -- 56
2018-09-09 12:00:00 24.9 16 Nordeste 33 Este 0 -- -- 69
2018-09-09 11:00:00 25 16 Nordeste 24 Nordeste 0 -- -- 64
2018-09-09 10:00:00 25.6 9 Nordeste 17 Este 0 -- -- 57
2018-09-09 09:00:00 24.4 5 Sur 10 Sur 0 -- -- 84
2018-09-09 08:00:00 23.2 8 Sur 12 Sudeste 0 -- -- 89
2018-09-09 07:00:00 23 10 Sudeste 17 Sudeste 0 -- -- 88
2018-09-09 06:00:00 23 11 Sudeste 14 Sudeste 0 -- -- 82
2018-09-09 05:00:00 23.3 8 Sudeste 14 Sudeste 0 -- -- 74
2018-09-09 04:00:00 23.4 8 Sudeste 20 Sudeste 0 -- -- 66
2018-09-09 03:00:00 23.1 6 Sudeste 25 Nordeste 0 -- -- 79
2018-09-09 02:00:00 23.7 11 Nordeste 20 Nordeste 0 -- -- 79
2018-09-09 01:00:00 23.9 7 Sudeste 27 Sudeste 0 -- -- 79
2018-09-09 00:00:00 24.1 6 Este 31 Este 0 -- -- 78
2018-09-08 23:00:00 24.4 16 Nordeste 32 Este 0 -- -- 76
2018-09-08 22:00:00 24.6 15 Nordeste 28 Nordeste 0 -- -- 73
2018-09-08 21:00:00 24.3 8 Sudeste 14 Sudeste 0 -- -- 78
2018-09-08 20:00:00 25.2 3 Nordeste 7 Noroeste 0 -- -- 78
2018-09-08 19:00:00 25.3 3 Norte 9 Norte 0 -- -- 79
2018-09-08 18:00:00 25.5 3 Nordeste 12 Norte 0 -- -- 79
2018-09-08 17:00:00 25.4 9 Norte 15 Norte 0 -- -- 79
2018-09-08 16:00:00 25.7 10 Norte 18 Norte 0 -- -- 75
2018-09-08 15:00:00 26.9 6 Norte 16 Noroeste 0 -- -- 70
2018-09-08 14:00:00 26.7 9 Noroeste 19 Noroeste 0 -- -- 68
2018-09-08 13:00:00 26.5 8 Norte 18 Norte 0 -- -- 66
2018-09-08 12:00:00 27.5 6 Noroeste 16 Noroeste 0 -- -- 58
2018-09-08 11:00:00 26.7 4 Noroeste 27 Este 0 -- -- 62
2018-09-08 10:00:00 26 6 Nordeste 16 Nordeste 0 -- -- 62
2018-09-08 09:00:00 25.3 4 Este 21 Este 0 -- -- 62
2018-09-08 08:00:00 23.3 8 Este 18 Este 0 -- -- 74
2018-09-08 07:00:00 21.8 7 Sudeste 13 Sudeste 0 -- -- 83
2018-09-08 06:00:00 22.5 8 Sudeste 14 Sudeste 0 -- -- 89
2018-09-08 05:00:00 22.3 9 Sudeste 14 Sudeste 0 -- -- 88
2018-09-08 04:00:00 22 8 Sudeste 14 Sudeste 0 -- -- 83
2018-09-08 03:00:00 21.3 6 Sur 14 Sur 0 -- -- 85
2018-09-08 02:00:00 21.6 11 Sur 15 Sur 0 -- -- 84
2018-09-08 01:00:00 21.9 6 Sur 12 Sur 0 -- -- 82
2018-09-08 00:00:00 21.9 6 Sur 14 Sur 0 -- -- 81
2018-09-07 23:00:00 22.4 6 Sur 16 Sudeste 0 -- -- 79
2018-09-07 22:00:00 24 12 Sudeste 21 Sudeste 0 -- -- 76
2018-09-07 21:00:00 24.4 7 Este 19 Sudeste 0 -- -- 73
2018-09-07 20:00:00 25.5 6 Sudeste 15 Sudeste 0 -- -- 68
2018-09-07 19:00:00 26.1 8 Este 22 Sudeste 0 -- -- 65
2018-09-07 18:00:00 27.3 12 Sudeste 33 Sudeste 0 -- -- 62
2018-09-07 17:00:00 26.1 14 Sudeste 27 Sudeste 0 -- -- 67
2018-09-07 16:00:00 26 7 Sudeste 18 Sudeste 0 -- -- 67
2018-09-07 15:00:00 26.3 11 Nordeste 19 Este 0 -- -- 71
2018-09-07 14:00:00 26.5 7 Este 24 Este 0 -- -- 67
2018-09-07 13:00:00 26.2 10 Sudeste 23 Sudeste 0 -- -- 65
2018-09-07 12:00:00 26.6 13 Sudeste 24 Sudeste 0 -- -- 64
2018-09-07 11:00:00 25.7 13 Sudeste 28 Sudeste 0 -- -- 70
2018-09-07 10:00:00 25 9 Sudeste 17 Sudeste 0 -- -- 74
2018-09-07 09:00:00 24.3 3 Sudeste 10 Sur 0 -- -- 77
2018-09-07 08:00:00 22.7 9 Sur 16 Sur 0 -- -- 83
2018-09-07 07:00:00 22.2 9 Sur 13 Sudoeste 0 -- -- 89
2018-09-07 06:00:00 23.4 8 Sur 19 Sudeste 0 -- -- 81
2018-09-07 05:00:00 23.4 5 Sudeste 10 Sur 0 -- -- 83
2018-09-07 04:00:00 22.7 5 Sudeste 10 Sudeste 0 -- -- 87
2018-09-07 03:00:00 22.6 6 Sur 15 Sur 0 -- -- 87
2018-09-07 02:00:00 22.7 9 Sur 13 Sur 0 -- -- 87
2018-09-07 01:00:00 22.4 6 Sur 15 Sur 0 -- -- 88
2018-09-07 00:00:00 22.3 10 Sur 14 Sur 0 -- -- 84
2018-09-06 23:00:00 22.6 10 Sur 14 Sudeste 0 -- -- 82
2018-09-06 22:00:00 23.6 4 Sudeste 13 Sudeste 0 -- -- 85
2018-09-06 21:00:00 24.4 6 Sudeste 21 Nordeste 0 -- -- 82
2018-09-06 20:00:00 25.2 12 Nordeste 22 Nordeste 0 -- -- 81
2018-09-06 19:00:00 26 10 Nordeste 19 Nordeste 0 -- -- 78
2018-09-06 18:00:00 26.3 11 Norte 17 Norte 0 -- -- 77
2018-09-06 17:00:00 26.9 9 Norte 15 Norte 0 -- -- 76
2018-09-06 16:00:00 26.6 7 Nordeste 15 Norte 0 -- -- 79
2018-09-06 15:00:00 26.6 7 Norte 16 Norte 0 -- -- 81
2018-09-06 14:00:00 25 4 Nordeste 10 Norte 0 -- -- 76
2018-09-06 13:00:00 25.7 4 Norte 13 Norte 0 -- -- 70
2018-09-06 12:00:00 26.2 5 Norte 8 Norte 0 -- -- 67
2018-09-06 11:00:00 26.1 4 Noroeste 9 Oeste 0 -- -- 65
2018-09-06 10:00:00 28.6 0 Calma 12 Sudeste 0 -- -- 56
2018-09-06 09:00:00 25.5 7 Sur 13 Sudeste 0 -- -- 70
2018-09-06 08:00:00 22.6 9 Sur 13 Sur 0 -- -- 77
2018-09-06 07:00:00 22.2 8 Sudeste 18 Sudeste 0 -- -- 85
2018-09-06 06:00:00 22.7 9 Sudeste 30 Norte 0 -- -- 91
2018-09-06 05:00:00 24.1 10 Sudoeste 22 Sudoeste 0 -- -- 84
2018-09-06 04:00:00 23.7 6 Sudoeste 16 Sudoeste 0 -- -- 82
2018-09-06 03:00:00 24.8 8 Sudoeste 16 Sur 0 -- -- 82
2018-09-06 02:00:00 22.8 10 Sur 13 Sur 0 -- -- 94
2018-09-06 01:00:00 23.4 8 Sur 12 Sur 0 -- -- 96
2018-09-06 00:00:00 23.6 5 Sur 8 Sur 0 -- -- 96
2018-09-05 23:00:00 23.9 5 Sur 12 Sur 0 -- -- 93
2018-09-05 22:00:00 25.3 6 Sur 14 Noroeste 0 -- -- 89
2018-09-05 21:00:00 26.2 5 Noroeste 11 Norte 0 -- -- 89
2018-09-05 20:00:00 26.7 7 Noroeste 15 Oeste 0 -- -- 86
2018-09-05 19:00:00 27.2 9 Oeste 24 Oeste 0 -- -- 84
2018-09-05 18:00:00 28.1 9 Noroeste 21 Oeste 0 -- -- 83
2018-09-05 17:00:00 28 13 Oeste 25 Oeste 0 -- -- 84
2018-09-05 16:00:00 27.9 9 Oeste 23 Sudoeste 0 -- -- 86
2018-09-05 15:00:00 27.1 7 Oeste 24 Noroeste 0 -- -- 88
2018-09-05 14:00:00 26.8 12 Noroeste 22 Noroeste 0 -- -- 90
2018-09-05 13:00:00 26.5 6 Noroeste 16 Noroeste 0 -- -- 92
2018-09-05 12:00:00 27 7 Noroeste 15 Norte 0 -- -- 88
2018-09-05 11:00:00 27.7 7 Oeste 13 Oeste 0 -- -- 83
2018-09-05 10:00:00 27.8 2 Noroeste 8 Sudoeste 0 -- -- 84
2018-09-05 09:00:00 26.5 5 Oeste 8 Oeste 0 -- -- 91
2018-09-05 08:00:00 24.8 6 Sur 10 Sur 0 -- -- 96
2018-09-05 07:00:00 24.3 4 Sur 12 Sur 0 -- -- 96
2018-09-05 06:00:00 24.1 5 Sur 10 Sur 0 -- -- 94
2018-09-05 05:00:00 23.5 7 Sur 11 Sur 0 -- -- 93
2018-09-05 04:00:00 23.5 7 Sur 12 Sur 0 -- -- 92
2018-09-05 03:00:00 23.6 5 Sur 12 Sur 0 -- -- 90
2018-09-05 02:00:00 23.9 7 Sur 12 Sur 0 -- -- 88
2018-09-05 01:00:00 24.6 6 Sur 13 Sudeste 0 -- -- 86
2018-09-05 00:00:00 24.1 6 Sur 12 Sur 0 -- -- 92
2018-09-04 23:00:00 24.2 9 Sur 12 Sur 0 -- -- 93
2018-09-04 22:00:00 25 7 Sur 13 Nordeste 0 -- -- 87
2018-09-04 21:00:00 26.3 4 Sudeste 10 Sur 0 -- -- 83
2018-09-04 20:00:00 27.5 0 Calma 14 Norte 0 -- -- 73
2018-09-04 19:00:00 27.7 7 Norte 17 Nordeste 0 -- -- 74
2018-09-04 18:00:00 28.5 4 Norte 8 Norte 0 -- -- 76
2018-09-04 17:00:00 28.4 4 Norte 8 Norte 0 -- -- 77
2018-09-04 16:00:00 28.7 4 Norte 8 Norte 0 -- -- 75
2018-09-04 15:00:00 27 4 Norte 12 Noroeste 0 -- -- 81
2018-09-04 14:00:00 26.6 6 Norte 11 Noroeste 0 -- -- 83
2018-09-04 13:00:00 26.9 4 Noroeste 11 Oeste 0 -- -- 80
2018-09-04 12:00:00 27.4 6 Noroeste 15 Oeste 0 -- -- 80
2018-09-04 11:00:00 27.1 6 Noroeste 23 Oeste 0 -- -- 77
2018-09-04 10:00:00 27.1 11 Oeste 17 Oeste 0 -- -- 69
2018-09-04 09:00:00 26.2 6 Sur 13 Sudeste 0 -- -- 72
2018-09-04 08:00:00 25.1 10 Sudeste 18 Sudeste 0 -- -- 78
2018-09-04 07:00:00 24.6 10 Sudeste 27 Este 0 -- -- 79
2018-09-04 06:00:00 26.6 18 Este 42 Nordeste 0 -- -- 61
2018-09-04 05:00:00 27.8 8 Sudoeste 58 Sudeste 0 -- -- 53
2018-09-04 04:00:00 26.9 28 Sudeste 56 Sur 0 -- -- 56
2018-09-04 03:00:00 25.5 23 Sur 50 Sur 0 -- -- 67
2018-09-04 02:00:00 21.9 11 Sudeste 19 Sudeste 0 -- -- 90
2018-09-04 01:00:00 21.9 9 Sudeste 28 Sudeste 0 -- -- 86
2018-09-04 00:00:00 22.3 11 Este 35 Norte 5.4 -- -- 98
2018-09-03 23:00:00 24.9 14 Sudoeste 38 Sudoeste 1.4 -- -- 94
2018-09-03 22:00:00 26.9 9 Noroeste 31 Sudoeste 0 -- -- 78
2018-09-03 21:00:00 27 4 Nordeste 19 Oeste 0 -- -- 73
2018-09-03 20:00:00 27.5 13 Sur 38 Este 0 -- -- 73
2018-09-03 19:00:00 26.3 7 Noroeste 24 Norte 0 -- -- 83
2018-09-03 18:00:00 27.2 8 Norte 31 Nordeste 0 -- -- 81
2018-09-03 17:00:00 27 13 Norte 35 Norte 0 -- -- 82
2018-09-03 16:00:00 27.8 14 Nordeste 25 Norte 0 -- -- 76
2018-09-03 15:00:00 29.1 7 Noroeste 27 Nordeste 0 -- -- 69
2018-09-03 14:00:00 28.1 12 Nordeste 27 Nordeste 0 -- -- 68
2018-09-03 13:00:00 27.2 15 Nordeste 24 Nordeste 0 -- -- 76
2018-09-03 12:00:00 27.3 9 Norte 19 Nordeste 0 -- -- 74
2018-09-03 11:00:00 28 7 Norte 10 Noroeste 0 -- -- 56
2018-09-03 10:00:00 28.3 4 Noroeste 10 Sudeste 0 -- -- 53
2018-09-03 09:00:00 27.3 3 Sudeste 10 Sur 0 -- -- 62
2018-09-03 08:00:00 24.2 5 Sur 12 Sudeste 0 -- -- 72
2018-09-03 07:00:00 22.6 8 Sur 12 Sur 0 -- -- 83
2018-09-03 06:00:00 23.5 4 Sur 14 Sudoeste 0 -- -- 80
2018-09-03 05:00:00 23.7 4 Oeste 12 Sur 0 -- -- 78
2018-09-03 04:00:00 23.7 6 Sur 9 Sudeste 0 -- -- 79
2018-09-03 03:00:00 23.9 5 Sur 12 Sudeste 0 -- -- 80
2018-09-03 02:00:00 23.9 7 Sudeste 13 Sudeste 0 -- -- 80
2018-09-03 01:00:00 24 5 Sur 9 Sur 0 -- -- 77
2018-09-03 00:00:00 24.7 5 Sur 15 Sudoeste 0 -- -- 75
2018-09-02 23:00:00 25.4 8 Sudoeste 19 Sudoeste 0 -- -- 71
2018-09-02 22:00:00 25.1 3 Sur 9 Sur 0 -- -- 72
2018-09-02 21:00:00 25.8 3 Sudoeste 13 Sur 0 -- -- 69
2018-09-02 20:00:00 26.6 8 Sur 17 Sudoeste 0 -- -- 69
2018-09-02 19:00:00 27.8 10 Norte 16 Nordeste 0 -- -- 73
2018-09-02 18:00:00 28.9 8 Norte 15 Norte 0 -- -- 64
2018-09-02 17:00:00 29.1 7 Norte 13 Este 0 -- -- 65
2018-09-02 16:00:00 28.2 5 Norte 9 Norte 0 -- -- 66
2018-09-02 15:00:00 28.5 4 Norte 12 Norte 0 -- -- 66
2018-09-02 14:00:00 27.8 6 Norte 12 Norte 0 -- -- 67
2018-09-02 13:00:00 26.9 10 Norte 15 Norte 0 -- -- 71
2018-09-02 12:00:00 27.9 6 Noroeste 9 Noroeste 0 -- -- 65
2018-09-02 11:00:00 26.8 3 Norte 9 Este 0 -- -- 65
2018-09-02 10:00:00 27.2 3 Nordeste 17 Sur 0 -- -- 65
2018-09-02 09:00:00 23.5 6 Sur 21 Sur 0 -- -- 75
2018-09-02 08:00:00 23.8 9 Sur 28 Sur 0 -- -- 75
2018-09-02 07:00:00 23.4 5 Sudeste 23 Sur 0 -- -- 76
2018-09-02 06:00:00 23 8 Sur 15 Sur 0 -- -- 79
2018-09-02 05:00:00 22.5 6 Sur 14 Sur 0 -- -- 82
2018-09-02 04:00:00 22 8 Sur 12 Sur 0 -- -- 80
2018-09-02 03:00:00 22.3 7 Sur 14 Sur 0 -- -- 78
2018-09-02 02:00:00 23.1 6 Sudeste 11 Sudeste 0 -- -- 76
2018-09-02 01:00:00 23 5 Sudeste 20 Sudeste 0 -- -- 76
2018-09-02 00:00:00 23.8 8 Sudeste 19 Sudeste 0 -- -- 74
2018-09-01 23:00:00 23.9 6 Sur 14 Sur 0 -- -- 76
2018-09-01 22:00:00 24.6 5 Este 14 Sudoeste 0 -- -- 74
2018-09-01 21:00:00 24.2 6 Sur 8 Sur 0 -- -- 76
2018-09-01 20:00:00 26.2 3 Norte 8 Norte 0 -- -- 69
2018-09-01 19:00:00 26.2 4 Norte 9 Norte 0 -- -- 66
2018-09-01 18:00:00 27.6 5 Norte 9 Norte 0 -- -- 61
2018-09-01 17:00:00 26.6 5 Norte 13 Norte 0 -- -- 65
2018-09-01 16:00:00 28.1 8 Norte 14 Norte 0 -- -- 61
2018-09-01 15:00:00 28.8 8 Norte 17 Noroeste 0 -- -- 57
2018-09-01 14:00:00 27.5 8 Norte 15 Norte 0 -- -- 61
2018-09-01 13:00:00 28 5 Norte 12 Norte 0 -- -- 55
2018-09-01 12:00:00 27.6 9 Noroeste 14 Oeste 0 -- -- 57
2018-09-01 11:00:00 27.7 4 Noroeste 13 Este 0 -- -- 53
2018-09-01 10:00:00 27.5 5 Oeste 17 Sudeste 0 -- -- 53
2018-09-01 09:00:00 26.3 10 Sudeste 25 Sudeste 0 -- -- 53
2018-09-01 08:00:00 23.7 9 Sudeste 15 Sudeste 0 -- -- 70
2018-09-01 07:00:00 23.2 7 Sur 10 Sur 0 -- -- 72
2018-09-01 06:00:00 23.3 5 Sudeste 11 Sudeste 0 -- -- 74
2018-09-01 05:00:00 22.9 5 Sur 9 Sur 0 -- -- 80
2018-09-01 04:00:00 22.9 6 Sur 11 Sur 0 -- -- 79
2018-09-01 03:00:00 23.7 8 Sur 15 Sur 0 -- -- 76
2018-09-01 02:00:00 23.9 6 Sudeste 20 Sudeste 0 -- -- 75
2018-09-01 01:00:00 23.7 11 Sudeste 18 Sudeste 0 -- -- 74
2018-09-01 00:00:00 24 7 Sudeste 26 Sudeste 0 -- -- 72
2018-08-31 23:00:00 24.3 17 Sudeste 27 Este 0 -- -- 71
2018-08-31 22:00:00 24.2 4 Sur 12 Sur 0 -- -- 77
2018-08-31 21:00:00 24.5 6 Sur 8 Sur 0 -- -- 74
2018-08-31 20:00:00 26.1 5 Norte 9 Norte 0 -- -- 69
2018-08-31 19:00:00 27.2 6 Norte 19 Norte 0 -- -- 64
2018-08-31 18:00:00 27.8 6 Norte 11 Noroeste 0 -- -- 64
2018-08-31 17:00:00 28.7 7 Norte 14 Norte 0 -- -- 58
2018-08-31 16:00:00 29 8 Norte 14 Norte 0 -- -- 57
2018-08-31 15:00:00 28.8 6 Noroeste 10 Norte 0 -- -- 53
2018-08-31 14:00:00 27.6 4 Norte 10 Noroeste 0 -- -- 57
2018-08-31 13:00:00 26.4 2 Sudoeste 6 Este 0 -- -- 62
2018-08-31 12:00:00 25.3 4 Sur 9 Sur 0 -- -- 70
2018-08-31 11:00:00 24.2 7 Sur 11 Sudeste 0 -- -- 68
2018-08-31 10:00:00 24.1 5 Sur 12 Sudoeste 0 -- -- 66
2018-08-31 09:00:00 23.2 9 Sur 11 Sur 0 -- -- 66
2018-08-31 08:00:00 22.8 6 Sur 13 Sur 0 -- -- 66
2018-08-31 07:00:00 22.3 8 Sur 14 Sur 0 -- -- 67
2018-08-31 06:00:00 22.4 8 Sur 13 Sur 0 -- -- 66
2018-08-31 05:00:00 22.2 11 Sur 13 Sudoeste 0 -- -- 70
2018-08-31 04:00:00 23.1 8 Sur 12 Sur 0 -- -- 72
2018-08-31 03:00:00 22.9 6 Sur 12 Sur 0 -- -- 81
2018-08-31 02:00:00 22.9 8 Sur 11 Sur 0 -- -- 81
2018-08-31 01:00:00 23.2 6 Sur 9 Sur 0 -- -- 83
2018-08-31 00:00:00 23.8 9 Sur 12 Sur 0 -- -- 81
2018-08-30 23:00:00 24 6 Sur 11 Sudeste 0 -- -- 81
2018-08-30 22:00:00 24.6 5 Sur 8 Sur 0 -- -- 80
2018-08-30 21:00:00 25.1 6 Sur 9 Sur 0 -- -- 77
2018-08-30 20:00:00 27.1 3 Norte 9 Norte 0 -- -- 69
2018-08-30 19:00:00 28.3 6 Norte 9 Norte 0 -- -- 66
2018-08-30 18:00:00 28.8 5 Noroeste 10 Norte 0 -- -- 64
2018-08-30 17:00:00 28 7 Norte 15 Norte 0 -- -- 67
2018-08-30 16:00:00 28.4 8 Norte 13 Norte 0 -- -- 67
2018-08-30 15:00:00 28.2 8 Norte 15 Norte 0 -- -- 67
2018-08-30 14:00:00 28.3 8 Norte 13 Norte 0 -- -- 67
2018-08-30 13:00:00 28.4 7 Norte 12 Noroeste 0 -- -- 64
2018-08-30 12:00:00 28.2 6 Noroeste 11 Noroeste 0 -- -- 62
2018-08-30 11:00:00 27.8 5 Oeste 10 Oeste 0 -- -- 61
2018-08-30 10:00:00 27.5 4 Oeste 20 Este 0 -- -- 59
2018-08-30 09:00:00 26.2 10 Nordeste 18 Nordeste 0 -- -- 62
2018-08-30 08:00:00 25.2 5 Nordeste 13 Sudeste 0 -- -- 63
2018-08-30 07:00:00 23.9 8 Sudeste 13 Sudeste 0 -- -- 75
2018-08-30 06:00:00 24 6 Sudeste 10 Sudeste 0 -- -- 86
2018-08-30 05:00:00 24.2 6 Sur 13 Sudeste 0 -- -- 88
2018-08-30 04:00:00 23.7 7 Sur 12 Sudoeste 0 -- -- 92
2018-08-30 03:00:00 25 10 Sur 15 Sudoeste 0 -- -- 89
2018-08-30 02:00:00 24.4 6 Sur 9 Sudeste 0 -- -- 89
2018-08-30 01:00:00 25.3 5 Sudoeste 12 Sudoeste 0 -- -- 89
2018-08-30 00:00:00 24.2 8 Sudoeste 13 Sur 0 -- -- 90
2018-08-29 23:00:00 24.5 8 Sur 11 Sur 0 -- -- 87
2018-08-29 22:00:00 25.2 8 Sudeste 23 Este 0 -- -- 85
2018-08-29 21:00:00 26.8 11 Nordeste 22 Nordeste 0 -- -- 82
2018-08-29 20:00:00 26.9 12 Nordeste 24 Nordeste 0 -- -- 87
2018-08-29 19:00:00 27.5 13 Nordeste 24 Nordeste 0 -- -- 83
2018-08-29 18:00:00 28.2 13 Nordeste 20 Nordeste 0 -- -- 78
2018-08-29 17:00:00 27.4 13 Nordeste 21 Nordeste 0 -- -- 85
2018-08-29 16:00:00 26.6 12 Nordeste 19 Nordeste 0 -- -- 89
2018-08-29 15:00:00 26.8 10 Norte 18 Nordeste 0 -- -- 86
2018-08-29 14:00:00 27 10 Nordeste 22 Nordeste 0 -- -- 85
2018-08-29 13:00:00 27.7 14 Nordeste 22 Nordeste 0 -- -- 82
2018-08-29 12:00:00 27.1 13 Nordeste 21 Nordeste 0 -- -- 87
2018-08-29 11:00:00 27.2 13 Nordeste 23 Nordeste 0 -- -- 87
2018-08-29 10:00:00 27.6 15 Nordeste 25 Nordeste 0 -- -- 77
2018-08-29 09:00:00 25.9 9 Sur 13 Sur 0 -- -- 72
2018-08-29 08:00:00 23.6 10 Sur 14 Sur 0 -- -- 72
2018-08-29 07:00:00 24.7 8 Sur 17 Sudeste 0 -- -- 64
2018-08-29 06:00:00 25 7 Sudoeste 16 Oeste 0 -- -- 63
2018-08-29 05:00:00 24.3 5 Sur 11 Sur 0 -- -- 90
2018-08-29 04:00:00 25 7 Sudeste 12 Sudeste 0 -- -- 83
2018-08-29 03:00:00 24.1 7 Sudeste 13 Sur 0 -- -- 75
2018-08-29 02:00:00 24.2 6 Sur 12 Sudeste 0 -- -- 82
2018-08-29 01:00:00 24.4 8 Sur 15 Sur 0 -- -- 81
2018-08-29 00:00:00 25.4 3 Sudeste 11 Sur 0 -- -- 74
2018-08-28 23:00:00 25.3 8 Sur 14 Sudeste 0 -- -- 85
2018-08-28 22:00:00 26.1 10 Sudoeste 22 Sudoeste 0 -- -- 85
2018-08-28 21:00:00 27.4 16 Sudoeste 45 Sudoeste 0 -- -- 78
2018-08-28 20:00:00 28.8 19 Sudeste 28 Sudeste 0 -- -- 54
2018-08-28 19:00:00 26.9 11 Nordeste 22 Nordeste 0 -- -- 83
2018-08-28 18:00:00 28.2 10 Nordeste 22 Nordeste 0 -- -- 79
2018-08-28 17:00:00 28.2 9 Nordeste 13 Nordeste 0 -- -- 78
2018-08-28 16:00:00 28.6 6 Norte 12 Noroeste 0 -- -- 77
2018-08-28 15:00:00 27.9 5 Norte 12 Noroeste 0 -- -- 78
2018-08-28 14:00:00 28 6 Norte 17 Norte 0 -- -- 77
2018-08-28 13:00:00 27.2 12 Norte 19 Norte 0 -- -- 81
2018-08-28 12:00:00 27.1 4 Norte 7 Noroeste 0 -- -- 79
2018-08-28 11:00:00 27 4 Noroeste 9 Oeste 0 -- -- 77
2018-08-28 10:00:00 27.1 2 Norte 9 Sur 0 -- -- 78
2018-08-28 09:00:00 24.9 6 Sur 12 Sur 0 -- -- 83
2018-08-28 08:00:00 22.5 8 Sur 13 Sur 0 -- -- 94
2018-08-28 07:00:00 21.9 11 Sur 16 Sur 0 -- -- 96
2018-08-28 06:00:00 22.7 7 Sur 10 Sur 0 -- -- 96
2018-08-28 05:00:00 22.3 9 Sur 15 Sur 0 -- -- 96
2018-08-28 04:00:00 22.5 10 Sur 12 Sur 0 -- -- 94
2018-08-28 03:00:00 22.9 9 Sur 14 Sur 0 -- -- 93
2018-08-28 02:00:00 22.7 10 Sur 16 Sur 0 -- -- 91
2018-08-28 01:00:00 22.8 9 Sur 13 Sur 0 -- -- 90
2018-08-28 00:00:00 23 9 Sur 12 Sur 0 -- -- 90
2018-08-27 23:00:00 23.3 9 Sur 14 Sur 0 -- -- 88
2018-08-27 22:00:00 24 6 Sur 9 Sur 0 -- -- 86
2018-08-27 21:00:00 24.7 6 Sur 9 Sur 0 -- -- 80
2018-08-27 20:00:00 27.2 4 Norte 13 Noroeste 0 -- -- 71
2018-08-27 19:00:00 28.1 5 Noroeste 13 Noroeste 0 -- -- 68
2018-08-27 18:00:00 28.6 5 Noroeste 12 Noroeste 0 -- -- 66
2018-08-27 17:00:00 28.5 7 Norte 11 Norte 0 -- -- 64
2018-08-27 16:00:00 29.3 7 Noroeste 11 Noroeste 0 -- -- 62
2018-08-27 15:00:00 28.5 5 Norte 12 Norte 0 -- -- 64
2018-08-27 14:00:00 27.9 4 Norte 10 Norte 0 -- -- 66
2018-08-27 13:00:00 27.6 6 Norte 9 Norte 0 -- -- 67
2018-08-27 12:00:00 27.1 5 Norte 8 Norte 0 -- -- 70
2018-08-27 11:00:00 26.6 4 Norte 6 Norte 0 -- -- 70
2018-08-27 10:00:00 26.9 2 Norte 4 Norte 0 -- -- 69
2018-08-27 09:00:00 25.2 3 Sudeste 11 Sur 0 -- -- 77
2018-08-27 08:00:00 21.9 9 Sur 13 Sur 0 -- -- 89
2018-08-27 07:00:00 21.5 8 Sur 12 Sur 0 -- -- 90
2018-08-27 06:00:00 21.9 8 Sur 11 Sur 0 -- -- 91
2018-08-27 05:00:00 21.7 6 Sur 11 Sur 0 -- -- 92
2018-08-27 04:00:00 21.8 8 Sur 12 Sur 0 -- -- 91
2018-08-27 03:00:00 21.9 8 Sur 13 Sur 0 -- -- 88
2018-08-27 02:00:00 22.2 10 Sur 17 Sur 0 -- -- 85
2018-08-27 01:00:00 22.3 8 Sur 14 Sur 0 -- -- 83
2018-08-27 00:00:00 22.4 8 Sur 17 Sudoeste 0 -- -- 82
2018-08-26 23:00:00 23 5 Sur 9 Sur 0 -- -- 81
2018-08-26 22:00:00 23.3 6 Sur 10 Sur 0 -- -- 77
2018-08-26 21:00:00 23.9 6 Sur 9 Sur 0 -- -- 74
2018-08-26 20:00:00 27 0 Calma 8 Norte 0 -- -- 66
2018-08-26 19:00:00 27.1 4 Norte 9 Norte 0 -- -- 65
2018-08-26 18:00:00 27 4 Norte 9 Norte 0 -- -- 64
2018-08-26 17:00:00 26.8 4 Norte 13 Norte 0 -- -- 65
2018-08-26 16:00:00 26.7 5 Norte 13 Noroeste 0 -- -- 64
2018-08-26 15:00:00 26.4 6 Noroeste 12 Norte 0 -- -- 66
2018-08-26 14:00:00 26.8 5 Noroeste 14 Noroeste 0 -- -- 61
2018-08-26 13:00:00 26.8 6 Norte 18 Este 0 -- -- 58
2018-08-26 12:00:00 25.9 8 Nordeste 23 Este 0 -- -- 60
2018-08-26 11:00:00 24.8 10 Sudeste 27 Sudeste 0 -- -- 63
2018-08-26 10:00:00 23.9 15 Sudeste 41 Sudeste 0 -- -- 66
2018-08-26 09:00:00 23 23 Sudeste 41 Sudeste 0 -- -- 68
2018-08-26 08:00:00 22.6 23 Sudeste 41 Sudeste 0 -- -- 68
2018-08-26 07:00:00 22.5 22 Sudeste 37 Sudeste 0 -- -- 68
2018-08-26 06:00:00 22.5 16 Sudeste 31 Sudeste 0 -- -- 70
2018-08-26 05:00:00 22.5 18 Sudeste 32 Sudeste 0 -- -- 72
2018-08-26 04:00:00 22.6 19 Sudeste 37 Sudeste 0 -- -- 70
2018-08-26 03:00:00 23 13 Sudeste 23 Sudeste 0 -- -- 67
2018-08-26 02:00:00 22.1 9 Sur 12 Sur 0 -- -- 79
2018-08-26 01:00:00 23.2 6 Sudeste 14 Sudeste 0 -- -- 76
2018-08-26 00:00:00 23.4 4 Sudeste 14 Sur 0 -- -- 74
2018-08-25 23:00:00 23.1 8 Sur 12 Sur 0 -- -- 79
2018-08-25 22:00:00 23.6 7 Sur 12 Sur 0 -- -- 74
2018-08-25 21:00:00 24.3 4 Sur 14 Sur 0 -- -- 70
2018-08-25 20:00:00 26.1 4 Nordeste 14 Norte 0 -- -- 76
2018-08-25 19:00:00 26.9 6 Norte 13 Norte 0 -- -- 76
2018-08-25 18:00:00 27.1 7 Norte 13 Norte 0 -- -- 75
2018-08-25 17:00:00 26.9 9 Norte 16 Norte 0 -- -- 76
2018-08-25 16:00:00 27.5 7 Norte 14 Norte 0 -- -- 71
2018-08-25 15:00:00 27.5 8 Norte 13 Norte 0 -- -- 71
2018-08-25 14:00:00 27.6 5 Norte 10 Norte 0 -- -- 68
2018-08-25 13:00:00 27.1 5 Norte 13 Norte 0 -- -- 69
2018-08-25 12:00:00 26.9 6 Norte 13 Norte 0 -- -- 71
2018-08-25 11:00:00 25.9 7 Norte 12 Norte 0 -- -- 76
2018-08-25 10:00:00 25.7 8 Norte 13 Norte 0 -- -- 76
2018-08-25 09:00:00 25.5 3 Este 9 Sudeste 0 -- -- 89
2018-08-25 08:00:00 23.6 6 Sur 9 Sudeste 0 -- -- 95
2018-08-25 07:00:00 22.5 6 Sudeste 13 Sur 0 -- -- 96
2018-08-25 06:00:00 22.9 9 Sur 12 Sudeste 0.6 -- -- 97
2018-08-25 05:00:00 23.2 9 Sur 14 Sur 0 -- -- 85
2018-08-25 04:00:00 23.4 7 Sur 14 Sur 0 -- -- 68
2018-08-25 03:00:00 22.9 10 Sur 15 Sur 0 -- -- 74
2018-08-25 02:00:00 23.5 6 Sur 13 Sudeste 0 -- -- 72
2018-08-25 01:00:00 23.5 6 Sur 12 Sur 0 -- -- 67
2018-08-25 00:00:00 23.3 8 Sur 13 Sur 0 -- -- 62